OCN6ZT LGMK-EDDF

Flight info

Callsign OCN6ZT
Flight time N/A
Altitude 34000
Route VARIX L995 KEA UN132 ROPOX UM749 SKP UL617 MAKED DCT LONTA UL608 DOLEV DCT LURID DCT BEDOX DCT SIMBA DCT AKINI T161 DEBHI DEBHI1C
Aircraft A320/M-SDE3FGHIRWY/LB1

Departure

Time 2026-05-08 16:15
Airport Mykonos Island National Airport (LGMK)

Arrival

Time N/A
Airport Frankfurt Main Airport (EDDF)
Time Latitude Longitude Altitude Speed Heading
2026-05-08 15:47 37.43542 25.34623 407 ft 0 kts 251°
2026-05-08 16:07 37.43547 25.34645 407 ft 4 kts 263°
2026-05-08 16:07 37.43545 25.34678 407 ft 4 kts 296°
2026-05-08 16:07 37.43529 25.34701 405 ft 3 kts 338°
2026-05-08 16:08 37.43525 25.34703 406 ft 0 kts 341°
2026-05-08 16:11 37.43565 25.34686 408 ft 14 kts 341°
2026-05-08 16:11 37.43649 25.34697 409 ft 11 kts 33°
2026-05-08 16:11 37.43702 25.34731 411 ft 7 kts
2026-05-08 16:11 37.43772 25.34707 411 ft 14 kts 340°
2026-05-08 16:12 37.43878 25.34661 412 ft 17 kts 342°
2026-05-08 16:12 37.43988 25.34615 410 ft 17 kts 340°
2026-05-08 16:12 37.44123 25.34554 408 ft 24 kts 341°
2026-05-08 16:12 37.44234 25.34500 406 ft 11 kts 330°
2026-05-08 16:13 37.44298 25.34453 404 ft 10 kts 17°
2026-05-08 16:13 37.44291 25.34476 403 ft 1 kts 150°
2026-05-08 16:13 37.44281 25.34481 405 ft 4 kts 155°
2026-05-08 16:13 37.44262 25.34491 404 ft 0 kts 159°
2026-05-08 16:14 37.44236 25.34503 406 ft 23 kts 158°
2026-05-08 16:15 37.43835 25.34682 412 ft 96 kts 161°
2026-05-08 16:15 37.43027 25.35043 509 ft 141 kts 160°
2026-05-08 16:15 37.42106 25.35448 1203 ft 140 kts 161°
2026-05-08 16:15 37.41189 25.35849 1852 ft 141 kts 162°
2026-05-08 16:16 37.40208 25.36279 2181 ft 159 kts 162°
2026-05-08 16:16 37.39095 25.36768 2425 ft 178 kts 163°
2026-05-08 16:16 37.37893 25.37298 2760 ft 191 kts 163°
2026-05-08 16:16 37.36600 25.37870 3168 ft 201 kts 164°
2026-05-08 16:17 37.35263 25.38391 3717 ft 201 kts 177°
2026-05-08 16:17 37.33939 25.38009 4221 ft 199 kts 216°
2026-05-08 16:17 37.33064 25.36619 4549 ft 213 kts 243°
2026-05-08 16:17 37.32368 25.34934 5178 ft 218 kts 243°
2026-05-08 16:18 37.31662 25.33236 5914 ft 220 kts 244°
2026-05-08 16:18 37.30947 25.31525 6630 ft 223 kts 245°
2026-05-08 16:18 37.30220 25.29800 7318 ft 224 kts 245°
2026-05-08 16:18 37.29480 25.28054 7880 ft 229 kts 245°
2026-05-08 16:19 37.28733 25.26298 8028 ft 228 kts 245°
2026-05-08 16:19 37.27987 25.24545 8080 ft 227 kts 245°
2026-05-08 16:19 37.27343 25.22751 8086 ft 224 kts 258°
2026-05-08 16:19 37.27286 25.20818 8082 ft 225 kts 280°
2026-05-08 16:20 37.27910 25.18947 8085 ft 247 kts 301°
2026-05-08 16:20 37.28905 25.17115 8094 ft 258 kts 301°
2026-05-08 16:20 37.29932 25.15242 8080 ft 261 kts 301°
2026-05-08 16:20 37.30965 25.13368 8085 ft 261 kts 302°
2026-05-08 16:21 37.31999 25.11489 8089 ft 262 kts 301°
2026-05-08 16:21 37.33028 25.09607 8086 ft 262 kts 301°
2026-05-08 16:21 37.34055 25.07718 8088 ft 262 kts 302°
2026-05-08 16:21 37.35123 25.05899 8087 ft 262 kts 304°
2026-05-08 16:22 37.36347 25.04202 8077 ft 266 kts 318°
2026-05-08 16:22 37.37916 25.02935 8083 ft 269 kts 324°
2026-05-08 16:22 37.39513 25.01714 8086 ft 269 kts 324°
2026-05-08 16:22 37.41112 25.00496 8087 ft 269 kts 324°
2026-05-08 16:23 37.42727 24.99268 8401 ft 274 kts 324°
2026-05-08 16:23 37.44352 24.98031 9305 ft 273 kts 323°
2026-05-08 16:23 37.45982 24.96791 10123 ft 275 kts 323°
2026-05-08 16:23 37.47665 24.95498 10472 ft 294 kts 323°
2026-05-08 16:24 37.49478 24.94096 10650 ft 318 kts 324°
2026-05-08 16:24 37.51430 24.92587 10775 ft 340 kts 324°
2026-05-08 16:24 37.53516 24.90984 10928 ft 361 kts 324°
2026-05-08 16:24 37.55694 24.89319 11347 ft 370 kts 325°
2026-05-08 16:25 37.57907 24.87632 11938 ft 374 kts 325°
2026-05-08 16:25 37.60144 24.85929 12556 ft 377 kts 325°
2026-05-08 16:25 37.62397 24.84212 13169 ft 380 kts 324°
2026-05-08 16:25 37.64664 24.82476 13758 ft 383 kts 324°
2026-05-08 16:26 37.66947 24.80723 14280 ft 386 kts 324°
2026-05-08 16:26 37.69245 24.78958 14785 ft 388 kts 324°
2026-05-08 16:26 37.71561 24.77175 15293 ft 391 kts 324°
2026-05-08 16:26 37.73894 24.75380 15782 ft 394 kts 324°
2026-05-08 16:27 37.80978 24.69921 17236 ft 402 kts 324°
2026-05-08 16:27 37.83367 24.68068 17705 ft 404 kts 323°
2026-05-08 16:28 37.85771 24.66199 18177 ft 407 kts 323°
2026-05-08 16:28 37.88191 24.64316 18596 ft 410 kts 323°
2026-05-08 16:28 37.90625 24.62427 18981 ft 412 kts 323°
2026-05-08 16:28 37.93079 24.60529 19379 ft 414 kts 323°
2026-05-08 16:29 37.95542 24.58621 19765 ft 417 kts 323°
2026-05-08 16:29 37.98026 24.56697 20145 ft 419 kts 323°
2026-05-08 16:29 38.00514 24.54767 20512 ft 421 kts 323°
2026-05-08 16:29 38.03019 24.52820 20872 ft 423 kts 323°
2026-05-08 16:30 38.05533 24.50864 21223 ft 425 kts 323°
2026-05-08 16:30 38.08062 24.48897 21574 ft 427 kts 323°
2026-05-08 16:30 38.10602 24.46918 21915 ft 430 kts 323°
2026-05-08 16:30 38.13153 24.44927 22235 ft 432 kts 323°
2026-05-08 16:31 38.15723 24.42923 22576 ft 434 kts 323°
2026-05-08 16:31 38.18301 24.40913 22919 ft 436 kts 323°
2026-05-08 16:31 38.20886 24.38890 23239 ft 438 kts 323°
2026-05-08 16:31 38.23481 24.36850 23548 ft 440 kts 322°
2026-05-08 16:32 38.26089 24.34797 23815 ft 442 kts 322°
2026-05-08 16:32 38.28709 24.32741 24083 ft 443 kts 323°
2026-05-08 16:32 38.31340 24.30681 24371 ft 444 kts 322°
2026-05-08 16:32 38.33975 24.28616 24632 ft 446 kts 322°
2026-05-08 16:33 38.36619 24.26544 24901 ft 447 kts 322°
2026-05-08 16:33 38.39265 24.24471 25161 ft 448 kts 322°
2026-05-08 16:33 38.41916 24.22388 25491 ft 446 kts 322°
2026-05-08 16:33 38.44547 24.20309 25886 ft 444 kts 322°
2026-05-08 16:34 38.47166 24.18234 26253 ft 442 kts 322°
2026-05-08 16:34 38.48932 24.16839 26445 ft 442 kts 322°
2026-05-08 16:34 38.51457 24.14846 26837 ft 440 kts 321°
2026-05-08 16:34 38.54053 24.12792 27257 ft 437 kts 321°
2026-05-08 16:35 38.56633 24.10748 27704 ft 436 kts 321°
2026-05-08 16:35 38.59210 24.08707 28036 ft 436 kts 321°
2026-05-08 16:35 38.61781 24.06671 28428 ft 434 kts 320°
2026-05-08 16:35 38.64345 24.04637 28795 ft 433 kts 321°
2026-05-08 16:36 38.66899 24.02608 29185 ft 431 kts 320°
2026-05-08 16:36 38.69445 24.00589 29606 ft 429 kts 320°
2026-05-08 16:36 38.71977 23.98579 30010 ft 428 kts 320°
2026-05-08 16:36 38.74500 23.96575 30364 ft 426 kts 320°
2026-05-08 16:37 38.77013 23.94575 30696 ft 424 kts 320°
2026-05-08 16:37 38.79514 23.92578 31021 ft 423 kts 320°
2026-05-08 16:37 38.82007 23.90583 31380 ft 422 kts 320°
2026-05-08 16:37 38.84493 23.88592 31668 ft 421 kts 319°
2026-05-08 16:38 38.86977 23.86603 31974 ft 421 kts 319°
2026-05-08 16:38 38.89459 23.84615 32293 ft 419 kts 319°
2026-05-08 16:38 38.91929 23.82639 32613 ft 418 kts 319°
2026-05-08 16:38 38.94397 23.80664 32927 ft 417 kts 319°
2026-05-08 16:39 38.96858 23.78693 33239 ft 416 kts 319°
2026-05-08 16:39 38.99310 23.76727 33563 ft 415 kts 319°
2026-05-08 16:39 39.01750 23.74763 33886 ft 414 kts 319°
2026-05-08 16:39 39.04194 23.72792 34015 ft 416 kts 319°
2026-05-08 16:40 39.09131 23.68801 34036 ft 423 kts 319°
2026-05-08 16:40 39.14105 23.64790 34030 ft 425 kts 319°
2026-05-08 16:41 39.19283 23.61007 34029 ft 437 kts 328°
2026-05-08 16:42 39.27923 23.56856 34029 ft 440 kts 330°
2026-05-08 16:42 39.33663 23.54106 34052 ft 441 kts 330°
2026-05-08 16:43 39.39377 23.51330 34020 ft 443 kts 330°
2026-05-08 16:43 39.45171 23.48501 34307 ft 446 kts 330°
2026-05-08 16:43 39.48113 23.47078 34520 ft 446 kts 330°
2026-05-08 16:44 39.50989 23.45695 34731 ft 446 kts 330°
2026-05-08 16:44 39.53899 23.44291 34958 ft 446 kts 331°
2026-05-08 16:44 39.56811 23.42882 35157 ft 448 kts 332°
2026-05-08 16:44 39.59734 23.41464 35307 ft 449 kts 332°
2026-05-08 16:45 39.62662 23.40038 35481 ft 450 kts 332°
2026-05-08 16:45 39.65626 23.38591 35690 ft 449 kts 333°
2026-05-08 16:45 39.68558 23.37162 35883 ft 449 kts 333°
2026-05-08 16:45 39.71442 23.35755 36032 ft 450 kts 333°
2026-05-08 16:46 39.74374 23.34325 36056 ft 450 kts 333°
2026-05-08 16:46 39.80230 23.31467 36056 ft 450 kts 334°
2026-05-08 16:47 39.86097 23.28596 36060 ft 451 kts 334°
2026-05-08 16:47 39.91967 23.25716 36058 ft 451 kts 334°
2026-05-08 16:48 39.97834 23.22830 36055 ft 451 kts 334°
2026-05-08 16:48 40.03704 23.19940 36062 ft 451 kts 334°
2026-05-08 16:49 40.09581 23.17038 36057 ft 452 kts 334°
2026-05-08 16:49 40.15466 23.14129 36065 ft 452 kts 334°
2026-05-08 16:50 40.21352 23.11212 36059 ft 452 kts 334°
2026-05-08 16:50 40.27240 23.08293 36070 ft 453 kts 335°
2026-05-08 16:51 40.33143 23.05364 36062 ft 454 kts 335°
2026-05-08 16:51 40.39047 23.02424 36060 ft 454 kts 335°
2026-05-08 16:52 40.44952 22.99463 36057 ft 454 kts 333°
2026-05-08 16:52 40.50538 22.95711 36057 ft 451 kts 328°
2026-05-08 16:53 40.58844 22.89906 36058 ft 451 kts 328°
2026-05-08 16:53 40.64386 22.86030 36061 ft 451 kts 328°
2026-05-08 16:54 40.69888 22.82164 36073 ft 451 kts 328°
2026-05-08 16:54 40.75462 22.78236 36093 ft 451 kts 329°
2026-05-08 16:55 40.80986 22.74337 36096 ft 449 kts 329°
2026-05-08 16:55 40.86493 22.70449 36095 ft 449 kts 329°
2026-05-08 16:56 40.91996 22.66552 36092 ft 448 kts 329°
2026-05-08 16:56 40.97450 22.62677 36093 ft 448 kts 329°
2026-05-08 16:57 41.02944 22.58774 36084 ft 449 kts 329°
2026-05-08 16:57 41.08447 22.54859 36084 ft 449 kts 329°
2026-05-08 16:58 41.13827 22.50698 36078 ft 446 kts 320°
2026-05-08 16:58 41.18665 22.45567 36091 ft 445 kts 319°
2026-05-08 16:59 41.23495 22.40408 36078 ft 446 kts 319°
2026-05-08 16:59 41.28066 22.35515 36073 ft 446 kts 319°
2026-05-08 17:00 41.32900 22.30342 36066 ft 446 kts 319°
2026-05-08 17:00 41.37734 22.25146 36071 ft 447 kts 319°
2026-05-08 17:01 41.41748 22.20824 36070 ft 446 kts 319°
2026-05-08 17:01 41.46577 22.15620 36070 ft 446 kts 319°
2026-05-08 17:02 41.51405 22.10416 36066 ft 447 kts 319°
2026-05-08 17:02 41.56236 22.05187 36060 ft 447 kts 319°
2026-05-08 17:03 41.61067 21.99951 36058 ft 447 kts 319°
2026-05-08 17:03 41.65901 21.94705 36058 ft 447 kts 319°
2026-05-08 17:04 41.70697 21.89488 36058 ft 448 kts 319°
2026-05-08 17:04 41.75534 21.84220 36046 ft 448 kts 319°
2026-05-08 17:05 41.80400 21.78906 36046 ft 448 kts 319°
2026-05-08 17:05 41.85232 21.73612 36041 ft 449 kts 319°
2026-05-08 17:06 41.90061 21.68304 36038 ft 449 kts 319°
2026-05-08 17:06 41.94659 21.63251 36041 ft 449 kts 319°
2026-05-08 17:07 41.99487 21.57932 36038 ft 449 kts 319°
2026-05-08 17:07 42.04320 21.52606 36053 ft 449 kts 319°
2026-05-08 17:08 42.09151 21.47264 36054 ft 449 kts 319°
2026-05-08 17:08 42.14008 21.41877 36053 ft 449 kts 319°
2026-05-08 17:09 42.18371 21.35904 36058 ft 447 kts 309°
2026-05-08 17:09 42.22397 21.29504 36065 ft 447 kts 309°
2026-05-08 17:10 42.26424 21.23100 36070 ft 447 kts 309°
2026-05-08 17:10 42.30427 21.16741 36069 ft 447 kts 309°
2026-05-08 17:11 42.34455 21.10331 36078 ft 447 kts 309°
2026-05-08 17:11 42.38458 21.03935 36083 ft 445 kts 308°
2026-05-08 17:12 42.42452 20.97553 36082 ft 444 kts 308°
2026-05-08 17:12 42.46429 20.91173 36081 ft 443 kts 308°
2026-05-08 17:13 42.50395 20.84788 36080 ft 443 kts 308°
2026-05-08 17:13 42.54354 20.78396 36077 ft 443 kts 308°
2026-05-08 17:14 42.58317 20.71994 36068 ft 443 kts 308°
2026-05-08 17:14 42.62274 20.65586 36064 ft 443 kts 308°
2026-05-08 17:15 42.66217 20.59186 36059 ft 443 kts 308°
2026-05-08 17:15 42.70166 20.52760 36060 ft 443 kts 308°
2026-05-08 17:16 42.74117 20.46324 36065 ft 443 kts 308°
2026-05-08 17:16 42.78064 20.39883 36063 ft 443 kts 308°
2026-05-08 17:17 42.82009 20.33424 36056 ft 444 kts 308°
2026-05-08 17:17 42.86411 20.27516 36053 ft 446 kts 317°
2026-05-08 17:18 42.91071 20.21940 36050 ft 446 kts 317°
2026-05-08 17:18 42.95723 20.16339 36044 ft 446 kts 317°
2026-05-08 17:19 43.00374 20.10722 36049 ft 446 kts 316°
2026-05-08 17:19 43.05019 20.05096 36043 ft 446 kts 316°
2026-05-08 17:20 43.09659 19.99470 36043 ft 446 kts 316°
2026-05-08 17:20 43.14302 19.93841 36041 ft 446 kts 316°
2026-05-08 17:21 43.18939 19.88204 36041 ft 446 kts 316°
2026-05-08 17:21 43.23571 19.82547 36040 ft 446 kts 316°
2026-05-08 17:22 43.28200 19.76893 36043 ft 446 kts 316°
2026-05-08 17:22 43.32828 19.71226 36039 ft 446 kts 316°
2026-05-08 17:23 43.37445 19.65547 36036 ft 445 kts 316°
2026-05-08 17:23 43.42062 19.59873 36028 ft 445 kts 316°
2026-05-08 17:24 43.46625 19.54246 36042 ft 446 kts 315°
2026-05-08 17:24 43.51246 19.48542 36039 ft 446 kts 316°
2026-05-08 17:25 43.55861 19.42827 36033 ft 446 kts 315°
2026-05-08 17:25 43.60479 19.37099 36028 ft 447 kts 315°
2026-05-08 17:26 43.65101 19.31362 36027 ft 446 kts 316°
2026-05-08 17:26 43.69720 19.25612 36028 ft 447 kts 315°
2026-05-08 17:27 43.74340 19.19843 36025 ft 447 kts 315°
2026-05-08 17:27 43.78929 19.14103 36028 ft 448 kts 315°
2026-05-08 17:28 43.83551 19.08312 36027 ft 448 kts 315°
2026-05-08 17:28 43.88167 19.02505 36036 ft 448 kts 315°
2026-05-08 17:29 43.92816 18.96645 36038 ft 448 kts 315°
2026-05-08 17:29 43.97430 18.90821 36035 ft 448 kts 315°
2026-05-08 17:30 44.02040 18.84984 36041 ft 448 kts 315°
2026-05-08 17:30 44.06641 18.79153 36038 ft 448 kts 315°
2026-05-08 17:31 44.11248 18.73303 36044 ft 448 kts 315°
2026-05-08 17:31 44.15822 18.67485 36035 ft 448 kts 315°
2026-05-08 17:32 44.20421 18.61627 36034 ft 448 kts 315°
2026-05-08 17:32 44.25015 18.55758 36039 ft 448 kts 314°
2026-05-08 17:33 44.29597 18.49875 36051 ft 448 kts 314°